Time,TemperatureF,DewpointF,PressureIn,WindDirection,WindDirectionDegrees,WindSpeedMPH,WindSpeedGustMPH,Humidity,HourlyPrecipIn,Conditions,Clouds,dailyrainin,SoftwareType,DateUTC
2015-06-29 00:05:00,62.6,57.4,29.85,WNW,283,8.0,8.0,83,0.00,RA,,0.00,WeatherDisplay:10.37,2015-06-29 04:05:00,
2015-06-29 00:15:00,62.4,57.5,29.85,WNW,284,3.0,5.0,84,0.00,FEW,,0.00,WeatherDisplay:10.37,2015-06-29 04:15:00,
2015-06-29 00:30:00,62.2,57.3,29.85,WNW,283,7.0,7.0,84,0.00,FEW,,0.00,WeatherDisplay:10.37,2015-06-29 04:30:00,
2015-06-29 00:45:00,61.8,57.2,29.85,West,280,0.0,3.0,85,0.00,FEW,,0.00,WeatherDisplay:10.37,2015-06-29 04:45:00,
2015-06-29 01:00:00,61.3,57.1,29.86,West,267,0.0,2.0,86,0.00,FEW,,0.00,WeatherDisplay:10.37,2015-06-29 05:00:00,
2015-06-29 01:15:00,60.7,56.8,29.86,SW,219,0.0,2.0,87,0.00,FEW,,0.00,WeatherDisplay:10.37,2015-06-29 05:15:00,
2015-06-29 01:30:00,60.0,56.4,29.87,SW,224,1.0,2.0,88,0.00,FEW,,0.00,WeatherDisplay:10.37,2015-06-29 05:30:00,
2015-06-29 01:45:00,60.3,56.4,29.87,WSW,245,0.0,5.0,87,0.00,FEW,,0.00,WeatherDisplay:10.37,2015-06-29 05:45:00,
2015-06-29 02:00:00,60.4,56.5,29.87,WNW,283,0.0,2.0,87,0.00,FEW,,0.00,WeatherDisplay:10.37,2015-06-29 06:00:00,
2015-06-29 02:15:00,59.8,56.2,29.86,WNW,284,0.0,2.0,88,0.00,FEW,,0.00,WeatherDisplay:10.37,2015-06-29 06:15:00,
2015-06-29 02:30:00,59.7,55.8,29.87,WNW,286,0.0,2.0,87,0.00,FEW,,0.00,WeatherDisplay:10.37,2015-06-29 06:30:00,
2015-06-29 02:45:00,59.9,55.7,29.88,SW,235,0.0,3.0,86,0.00,FEW,,0.00,WeatherDisplay:10.37,2015-06-29 06:45:00,
2015-06-29 03:00:00,59.6,55.7,29.88,West,273,0.0,2.0,87,0.00,FEW,,0.00,WeatherDisplay:10.37,2015-06-29 07:00:00,
2015-06-29 03:15:00,59.3,55.8,29.88,West,277,0.0,2.0,88,0.00,FEW,,0.00,WeatherDisplay:10.37,2015-06-29 07:15:00,
2015-06-29 03:30:00,59.3,55.4,29.88,West,266,0.0,3.0,87,0.00,FEW,,0.00,WeatherDisplay:10.37,2015-06-29 07:30:00,
2015-06-29 03:45:00,58.6,55.4,29.89,West,265,0.0,2.0,89,0.00,FEW,,0.00,WeatherDisplay:10.37,2015-06-29 07:45:00,
2015-06-29 04:00:00,58.0,54.8,29.89,West,278,0.0,0.0,89,0.00,FEW,,0.00,WeatherDisplay:10.37,2015-06-29 08:00:00,
2015-06-29 04:15:00,57.6,54.7,29.90,WSW,242,0.0,2.0,90,0.00,FEW,,0.00,WeatherDisplay:10.37,2015-06-29 08:15:00,
2015-06-29 04:30:00,57.8,54.9,29.90,West,259,0.0,2.0,90,0.00,FEW,,0.00,WeatherDisplay:10.37,2015-06-29 08:30:00,
2015-06-29 04:45:00,58.0,54.8,29.90,West,273,0.0,2.0,89,0.00,FEW,,0.00,WeatherDisplay:10.37,2015-06-29 08:45:00,
2015-06-29 05:00:00,57.8,54.6,29.91,WNW,285,0.0,2.0,89,0.00,FEW,,0.00,WeatherDisplay:10.37,2015-06-29 09:00:00,
2015-06-29 05:15:00,57.5,54.3,29.91,WNW,285,0.0,0.0,89,0.00,FEW,,0.00,WeatherDisplay:10.37,2015-06-29 09:15:00,
2015-06-29 05:30:00,57.1,54.5,29.92,WNW,282,0.0,2.0,91,0.00,FEW,,0.00,WeatherDisplay:10.37,2015-06-29 09:30:00,
2015-06-29 05:45:00,56.7,54.1,29.92,SW,229,0.0,2.0,91,0.00,FEW,,0.00,WeatherDisplay:10.37,2015-06-29 09:45:00,
2015-06-29 06:00:00,56.6,54.3,29.93,SW,231,1.0,3.0,92,0.00,FEW,,0.00,WeatherDisplay:10.37,2015-06-29 10:00:00,
2015-06-29 06:15:00,56.7,54.4,29.94,SW,224,0.0,0.0,92,0.00,FEW,,0.00,WeatherDisplay:10.37,2015-06-29 10:15:00,
2015-06-29 06:30:00,56.9,54.6,29.95,WSW,251,0.0,3.0,92,0.00,FEW,,0.00,WeatherDisplay:10.37,2015-06-29 10:30:00,
2015-06-29 06:45:00,57.6,55.0,29.95,WSW,257,1.0,3.0,91,0.00,FEW,,0.00,WeatherDisplay:10.37,2015-06-29 10:45:00,
2015-06-29 07:00:00,58.2,55.3,29.95,West,277,0.0,3.0,90,0.00,FEW,,0.00,WeatherDisplay:10.37,2015-06-29 11:00:00,
2015-06-29 07:15:00,59.2,55.6,29.95,WSW,252,0.0,3.0,88,0.00,FEW,,0.00,WeatherDisplay:10.37,2015-06-29 11:15:00,
2015-06-29 07:30:00,60.0,56.1,29.95,West,274,0.0,5.0,87,0.00,FEW,,0.00,WeatherDisplay:10.37,2015-06-29 11:30:00,
2015-06-29 07:45:00,60.7,56.5,29.95,WSW,255,3.0,5.0,86,0.00,FEW,,0.00,WeatherDisplay:10.37,2015-06-29 11:45:00,
2015-06-29 08:00:00,62.1,57.2,29.95,West,259,3.0,7.0,84,0.00,FEW,,0.00,WeatherDisplay:10.37,2015-06-29 12:00:00,
2015-06-29 08:15:00,63.6,56.6,29.95,WNW,283,9.0,9.0,78,0.00,FEW,,0.00,WeatherDisplay:10.37,2015-06-29 12:15:00,
2015-06-29 08:30:00,64.9,57.5,29.95,WNW,289,10.0,10.0,77,0.00,FEW,,0.00,WeatherDisplay:10.37,2015-06-29 12:30:00,
2015-06-29 08:45:00,65.8,56.9,29.96,West,280,12.0,12.0,73,0.00,FEW,,0.00,WeatherDisplay:10.37,2015-06-29 12:45:00,
2015-06-29 09:00:00,66.5,56.8,29.97,WNW,286,10.0,12.0,71,0.00,FEW,,0.00,WeatherDisplay:10.37,2015-06-29 13:00:00,
2015-06-29 09:15:00,67.3,58.0,29.97,West,270,8.0,10.0,72,0.00,FEW,,0.00,WeatherDisplay:10.37,2015-06-29 13:15:00,
2015-06-29 09:30:00,68.0,57.9,29.98,West,261,10.0,12.0,70,0.00,FEW,,0.00,WeatherDisplay:10.37,2015-06-29 13:30:00,
2015-06-29 09:45:00,68.8,58.2,29.97,WNW,286,9.0,10.0,69,0.00,FEW,,0.00,WeatherDisplay:10.37,2015-06-29 13:45:00,
2015-06-29 10:00:00,69.6,58.6,29.97,WNW,283,12.0,12.0,68,0.00,FEW,,0.00,WeatherDisplay:10.37,2015-06-29 14:00:00,
2015-06-29 10:15:00,70.5,59.0,29.97,WNW,285,14.0,14.0,67,0.00,FEW,,0.00,WeatherDisplay:10.37,2015-06-29 14:15:00,
2015-06-29 10:30:00,71.6,60.1,29.97,WNW,291,9.0,10.0,67,0.00,FEW,,0.00,WeatherDisplay:10.37,2015-06-29 14:30:00,
2015-06-29 10:45:00,71.9,59.1,29.96,West,280,8.0,10.0,64,0.00,FEW,,0.00,WeatherDisplay:10.37,2015-06-29 14:45:00,
2015-06-29 11:00:00,72.5,60.9,29.96,West,267,8.0,10.0,67,0.00,FEW,,0.00,WeatherDisplay:10.37,2015-06-29 15:00:00,
2015-06-29 11:15:00,72.7,59.8,29.96,WNW,282,10.0,10.0,64,0.00,FEW,,0.00,WeatherDisplay:10.37,2015-06-29 15:15:00,
2015-06-29 11:30:00,73.3,60.4,29.96,West,270,7.0,13.0,64,0.00,FEW,,0.00,WeatherDisplay:10.37,2015-06-29 15:30:00,
2015-06-29 11:45:00,74.1,61.1,29.96,West,274,10.0,12.0,64,0.00,FEW,,0.00,WeatherDisplay:10.37,2015-06-29 15:45:00,
2015-06-29 12:00:00,74.5,60.2,29.96,WNW,286,14.0,14.0,61,0.00,FEW,,0.00,WeatherDisplay:10.37,2015-06-29 16:00:00,
2015-06-29 12:15:00,74.7,59.9,29.96,WNW,293,10.0,12.0,60,0.00,FEW,,0.00,WeatherDisplay:10.37,2015-06-29 16:15:00,
2015-06-29 12:30:00,75.6,59.3,29.95,WNW,298,8.0,12.0,57,0.00,FEW,,0.00,WeatherDisplay:10.37,2015-06-29 16:30:00,
2015-06-29 12:45:00,75.6,61.6,29.95,WNW,285,7.0,13.0,62,0.00,FEW,,0.00,WeatherDisplay:10.37,2015-06-29 16:45:00,
2015-06-29 13:00:00,76.2,60.3,29.95,WNW,285,5.0,10.0,58,0.00,FEW,,0.00,WeatherDisplay:10.37,2015-06-29 17:00:00,
2015-06-29 13:15:00,76.1,59.8,29.95,WNW,289,10.0,10.0,57,0.00,FEW,,0.00,WeatherDisplay:10.37,2015-06-29 17:15:00,
2015-06-29 13:30:00,76.9,59.5,29.95,WNW,289,7.0,8.0,55,0.00,FEW,,0.00,WeatherDisplay:10.37,2015-06-29 17:30:00,
2015-06-29 13:45:00,77.6,61.6,29.95,West,272,5.0,8.0,58,0.00,FEW,,0.00,WeatherDisplay:10.37,2015-06-29 17:45:00,
2015-06-29 14:00:00,77.8,60.8,29.95,WNW,285,3.0,10.0,56,0.00,FEW,,0.00,WeatherDisplay:10.37,2015-06-29 18:00:00,
2015-06-29 14:15:00,77.8,61.8,29.95,West,260,8.0,10.0,58,0.00,FEW,,0.00,WeatherDisplay:10.37,2015-06-29 18:15:00,
2015-06-29 14:30:00,78.9,60.3,29.95,West,277,5.0,12.0,53,0.00,FEW,,0.00,WeatherDisplay:10.37,2015-06-29 18:30:00,
2015-06-29 14:45:00,78.7,60.6,29.94,SW,220,5.0,10.0,54,0.00,FEW,,0.00,WeatherDisplay:10.37,2015-06-29 18:45:00,
2015-06-29 15:00:00,78.3,60.8,29.94,WSW,242,9.0,10.0,55,0.00,FEW,,0.00,WeatherDisplay:10.37,2015-06-29 19:00:00,
2015-06-29 15:15:00,77.8,59.8,29.94,West,265,5.0,7.0,54,0.00,FEW,,0.00,WeatherDisplay:10.37,2015-06-29 19:15:00,
2015-06-29 15:30:00,78.3,60.3,29.94,WNW,288,6.0,12.0,54,0.00,FEW,,0.00,WeatherDisplay:10.37,2015-06-29 19:30:00,
2015-06-29 15:45:00,78.2,60.2,29.94,SW,235,6.0,7.0,54,0.00,FEW,,0.00,WeatherDisplay:10.37,2015-06-29 19:45:00,
2015-06-29 16:00:00,78.1,61.1,29.93,WSW,254,6.0,10.0,56,0.00,FEW,,0.00,WeatherDisplay:10.37,2015-06-29 20:00:00,
2015-06-29 16:15:00,78.4,59.3,29.93,WSW,258,3.0,8.0,52,0.00,FEW,,0.00,WeatherDisplay:10.37,2015-06-29 20:15:00,
2015-06-29 16:30:00,78.6,60.0,29.93,WSW,237,6.0,8.0,53,0.00,FEW,,0.00,WeatherDisplay:10.37,2015-06-29 20:30:00,
2015-06-29 16:45:00,78.8,59.7,29.92,West,281,12.0,12.0,52,0.00,FEW,,0.00,WeatherDisplay:10.37,2015-06-29 20:45:00,
2015-06-29 17:00:00,78.9,58.7,29.92,WNW,285,10.0,10.0,50,0.00,FEW,,0.00,WeatherDisplay:10.37,2015-06-29 21:00:00,
2015-06-29 17:15:00,78.9,59.2,29.92,WSW,255,7.0,7.0,51,0.00,FEW,,0.00,WeatherDisplay:10.37,2015-06-29 21:15:00,
2015-06-29 17:30:00,78.3,59.2,29.92,West,262,0.0,7.0,52,0.00,FEW,,0.00,WeatherDisplay:10.37,2015-06-29 21:30:00,
2015-06-29 17:45:00,78.7,61.7,29.92,SW,225,6.0,6.0,56,0.00,FEW,,0.00,WeatherDisplay:10.37,2015-06-29 21:45:00,
2015-06-29 18:00:00,78.8,59.1,29.92,WSW,257,6.0,7.0,51,0.00,FEW,,0.00,WeatherDisplay:10.37,2015-06-29 22:00:00,
2015-06-29 18:15:00,78.6,58.4,29.91,West,269,7.0,7.0,50,0.00,FEW,,0.00,WeatherDisplay:10.37,2015-06-29 22:15:00,
2015-06-29 18:30:00,78.5,57.8,29.91,SW,230,1.0,5.0,49,0.00,FEW,,0.00,WeatherDisplay:10.37,2015-06-29 22:30:00,
2015-06-29 18:45:00,78.4,58.2,29.91,WSW,243,6.0,6.0,50,0.00,FEW,,0.00,WeatherDisplay:10.37,2015-06-29 22:45:00,
2015-06-29 19:00:00,78.2,58.0,29.91,SW,233,6.0,6.0,50,0.00,FEW,,0.00,WeatherDisplay:10.37,2015-06-29 23:00:00,
2015-06-29 19:15:00,77.8,59.8,29.92,SW,216,0.0,5.0,54,0.00,FEW,,0.00,WeatherDisplay:10.37,2015-06-29 23:15:00,
2015-06-29 19:30:00,77.0,59.1,29.92,WSW,242,0.0,2.0,54,0.00,FEW,,0.00,WeatherDisplay:10.37,2015-06-29 23:30:00,